Regional Weather Roundup
Issued by NWS Northern Indiana

Home | Current Version | Previous Version | Graphics & Text | Print | Product List | Glossary On
Versions: 1 2 3 4 5 6 7 8 9 10 11 12 13 14 15 16 17 18 19 20 21 22 23 24 25 26 27 28 29 30 31 32 33 34 35 36 37 38 39 40 41 42 43 44 45 46 47 48 49 50
000
ASUS43 KIWX 221010
RWRIWX

KIWX WEATHER ROUNDUP
NATIONAL WEATHER SERVICE NORTHERN INDIANA
600 AM EDT FRI AUG 22 2014

NOTE: "FAIR" INDICATES FEW OR NO CLOUDS BELOW 12,000 FEET WITH NO
SIGNIFICANT WEATHER AND/OR OBSTRUCTIONS TO VISIBILITY.

* THESE STATIONS ARE NOT UNDER NWS QUALITY CONTROL. THEY ALSO MAY NOT
  REPORT WEATHER SUCH AS PRECIPITATION OR FOG.

INZ001>027-221100-
NORTHERN INDIANA

CITY           SKY/WX    TMP DP  RH WIND       PRES   REMARKS
GARY*          RAIN      73  72  94 S5        29.91F
VALPARAISO     LGT RAIN  71  70  96 S6        29.92F
MICHIGAN CITY* LGT RAIN  70  70 100 SW5       29.91F
LAPORTE*       LGT RAIN  70  70 100 CALM      29.91F
KNOX*          CLOUDY    70  68  92 CALM      29.90S
SOUTH BEND     CLOUDY    72  69  90 CALM      29.93F
GOSHEN         CLOUDY    72  69  90 E3        29.93F
MONTICELLO*    HVY RAIN  71  70  98 NE10      29.94R
LOGANSPORT*    HVY RAIN  70  68  94 NW5       29.97R
ROCHESTER*     TSTM      73  73 100 S3        29.95S
ANGOLA*        CLOUDY    70  61  73 SE3       29.96F
FORT WAYNE     TSTM      69  68  96 E14       29.95F FOG
HUNTINGTON*    TSTM      68  68  98 E8        29.95F
PERU/GRISSOM   TSTM      70  70 100 NW8       29.98R FOG
MARION*        LGT RAIN  70  68  95 E7        29.98R

$$
INZ028>050-221100-
CENTRAL INDIANA

CITY           SKY/WX    TMP DP  RH WIND       PRES   REMARKS
LAFAYETTE      TSTM      75  74  96 N10       29.92R
KOKOMO*        CLOUDY    72  70  94 CALM      29.94S
MUNCIE*        CLOUDY    72  69  90 VRB3      29.97F
INDIANAPOLIS   MOCLDY    75  72  90 SW10      29.93F

$$
MIZ043>046-050>051-056>058-064>065-071>073-077>080-221100-
SOUTHWEST LOWER MICHIGAN

CITY           SKY/WX    TMP DP  RH WIND       PRES   REMARKS
BATTLE CREEK   CLOUDY    71  69  93 S6        29.97R FOG
BENTON HARBOR  MOCLDY    68  67  96 E3        29.91F FOG
COLDWATER*     FOG       69  68  96 CALM      29.97R VSB 1/4
HILLSDALE*     FOG       70  70 100 CALM      29.98S VSB 1/4
HOLLAND        FOG       70  69  97 SE5       29.94R VSB 1/4
GRAND RAPIDS   CLOUDY    71  71 100 E5        29.94S FOG
KALAMAZOO      FOG       70  68  93 CALM      29.96R VSB 1/4
STURGIS*         N/A     68  68 100 E5        29.95S FOG
THREE RIVERS*  CLOUDY    70  69  98 NE3       29.95S FOG

$$
OHZ001>008-015>018-024>025-221100-
NORTHWEST OHIO

CITY           SKY/WX    TMP DP  RH WIND       PRES   REMARKS
WAUSEON*       CLOUDY    70  70 100 SW6       29.97R FOG
DEFIANCE       CLOUDY    69  67  93 S3        29.97S
FINDLAY        FOG       71  70  96 S3        29.97R VSB 1/4
TOLEDO EXPRESS LGT RAIN  70  70 100 SW3       29.96R FOG
TOLEDO METCALF MOCLDY    71  68  90 SW5       29.96R
LIMA           CLOUDY    70  68  93 W9        29.99R

$$
&&


USA.gov is the U.S. government's official web portal to all federal, state and local government web resources and services.